SPMKA EPKK-EPKK

Flight info

Callsign SPMKA
Flight time 1h 38m
Altitude 2000
Route AEPKK STAY01/0030 DCT EPKKZ DCT EPKKI DCT EPKKB DCT EPKKH DCT EPKTG DCT EPKTX DCT AEPKT STAY02/020 DCT EPKTX DCT EPKTG DCT EPKKH DCT EPKKB DCT EPKKI DCT EPKKZ DCT AEPKK STAY03/030
Aircraft DA40/L-V/N

Departure

Time 2026-05-05 18:29
Airport Kraków John Paul II International Airport (EPKK)

Arrival

Time 2026-05-05 20:07
Airport Kraków John Paul II International Airport (EPKK)
Time Latitude Longitude Altitude Speed Heading
2026-05-05 17:59 50.07704 19.80161 782 ft 0 kts 348°
2026-05-05 18:22 50.07705 19.80161 784 ft 2 kts 347°
2026-05-05 18:22 50.07758 19.80186 784 ft 13 kts 86°
2026-05-05 18:23 50.07784 19.80340 784 ft 14 kts 33°
2026-05-05 18:23 50.07855 19.80332 784 ft 0 kts 345°
2026-05-05 18:26 50.07865 19.80329 784 ft 7 kts 349°
2026-05-05 18:26 50.07949 19.80300 783 ft 14 kts 347°
2026-05-05 18:26 50.08013 19.80198 783 ft 15 kts 256°
2026-05-05 18:26 50.08011 19.80185 783 ft 0 kts 259°
2026-05-05 18:27 50.07995 19.80066 784 ft 34 kts 260°
2026-05-05 18:28 50.07799 19.78637 953 ft 80 kts 258°
2026-05-05 18:28 50.07666 19.77760 1108 ft 87 kts 255°
2026-05-05 18:28 50.07527 19.76787 1292 ft 92 kts 253°
2026-05-05 18:29 50.07369 19.75834 1507 ft 92 kts 259°
2026-05-05 18:29 50.07545 19.74905 1657 ft 99 kts 322°
2026-05-05 18:29 50.08201 19.74580 1777 ft 101 kts 345°
2026-05-05 18:29 50.08977 19.74574 1797 ft 125 kts 17°
2026-05-05 18:30 50.09551 19.75596 1797 ft 132 kts 79°
2026-05-05 18:30 50.09663 19.77043 1804 ft 139 kts 90°
2026-05-05 18:30 50.09698 19.78566 1804 ft 140 kts 94°
2026-05-05 18:30 50.09718 19.80070 1780 ft 140 kts 92°
2026-05-05 18:31 50.09821 19.81600 1679 ft 145 kts 83°
2026-05-05 18:31 50.09498 19.82869 1557 ft 131 kts 162°
2026-05-05 18:31 50.08644 19.82980 1346 ft 120 kts 181°
2026-05-05 18:31 50.08283 19.82149 1159 ft 104 kts 260°
2026-05-05 18:32 50.08149 19.81200 996 ft 80 kts 258°
2026-05-05 18:32 50.08042 19.80411 881 ft 70 kts 256°
2026-05-05 18:32 50.07943 19.79687 793 ft 66 kts 257°
2026-05-05 18:32 50.07848 19.79008 848 ft 64 kts 256°
2026-05-05 18:33 50.07734 19.78249 947 ft 77 kts 256°
2026-05-05 18:33 50.07606 19.77442 1137 ft 81 kts 256°
2026-05-05 18:33 50.07460 19.76531 1256 ft 93 kts 253°
2026-05-05 18:33 50.07365 19.75500 1388 ft 103 kts 277°
2026-05-05 18:34 50.07901 19.74746 1511 ft 116 kts 345°
2026-05-05 18:34 50.08711 19.74558 1648 ft 121 kts 354°
2026-05-05 18:34 50.09450 19.75056 1773 ft 122 kts 56°
2026-05-05 18:34 50.09721 19.76340 1797 ft 129 kts 85°
2026-05-05 18:35 50.09851 19.77783 1793 ft 138 kts 87°
2026-05-05 18:35 50.09947 19.79258 1795 ft 135 kts 90°
2026-05-05 18:35 50.09927 19.80740 1729 ft 137 kts 98°
2026-05-05 18:35 50.09907 19.82288 1601 ft 146 kts 100°
2026-05-05 18:36 50.09273 19.83214 1547 ft 137 kts 171°
2026-05-05 18:36 50.08396 19.82875 1384 ft 141 kts 234°
2026-05-05 18:36 50.08180 19.81445 1034 ft 123 kts 255°
2026-05-05 18:36 50.08031 19.80313 856 ft 92 kts 258°
2026-05-05 18:37 50.07910 19.79452 785 ft 76 kts 257°
2026-05-05 18:37 50.07801 19.78646 833 ft 81 kts 259°
2026-05-05 18:37 50.07692 19.77747 960 ft 92 kts 257°
2026-05-05 18:37 50.07536 19.76735 1087 ft 100 kts 255°
2026-05-05 18:38 50.07372 19.75643 1214 ft 106 kts 256°
2026-05-05 18:38 50.07556 19.74557 1341 ft 113 kts 317°
2026-05-05 18:38 50.08038 19.74245 1430 ft 117 kts 347°
2026-05-05 18:38 50.08873 19.74143 1554 ft 123 kts
2026-05-05 18:39 50.09554 19.74868 1677 ft 125 kts 68°
2026-05-05 18:39 50.09658 19.76183 1788 ft 123 kts 92°
2026-05-05 18:39 50.09727 19.77584 1797 ft 135 kts 90°
2026-05-05 18:39 50.09806 19.79051 1791 ft 135 kts 90°
2026-05-05 18:40 50.09873 19.80487 1801 ft 127 kts 91°
2026-05-05 18:40 50.09938 19.81829 1796 ft 120 kts 91°
2026-05-05 18:40 50.09725 19.82960 1791 ft 104 kts 134°
2026-05-05 18:40 50.09126 19.83420 1652 ft 101 kts 178°
2026-05-05 18:41 50.08483 19.83120 1495 ft 100 kts 239°
2026-05-05 18:41 50.08275 19.82071 1191 ft 103 kts 256°
2026-05-05 18:41 50.08148 19.81141 1006 ft 79 kts 256°
2026-05-05 18:41 50.08043 19.80374 870 ft 69 kts 257°
2026-05-05 18:42 50.07939 19.79650 788 ft 67 kts 256°
2026-05-05 18:42 50.07841 19.78933 816 ft 72 kts 256°
2026-05-05 18:42 50.07722 19.78074 927 ft 86 kts 257°
2026-05-05 18:42 50.07599 19.77134 1103 ft 91 kts 255°
2026-05-05 18:43 50.07166 19.76672 1240 ft 96 kts 165°
2026-05-05 18:43 50.06502 19.77081 1329 ft 107 kts 155°
2026-05-05 18:43 50.05786 19.77467 1456 ft 111 kts 163°
2026-05-05 18:43 50.05061 19.77909 1580 ft 115 kts 147°
2026-05-05 18:44 50.04574 19.78904 1705 ft 121 kts 108°
2026-05-05 18:44 50.04815 19.80159 1788 ft 133 kts 46°
2026-05-05 18:44 50.05704 19.80544 1785 ft 140 kts 346°
2026-05-05 18:44 50.06024 19.79515 1801 ft 122 kts 232°
2026-05-05 18:45 50.05511 19.78457 1803 ft 125 kts 232°
2026-05-05 18:45 50.04820 19.77705 1800 ft 126 kts 190°
2026-05-05 18:45 50.04006 19.78218 1798 ft 138 kts 135°
2026-05-05 18:45 50.03841 19.79657 1842 ft 146 kts 57°
2026-05-05 18:46 50.04806 19.79902 1776 ft 152 kts 345°
2026-05-05 18:46 50.05594 19.78941 1666 ft 146 kts 285°
2026-05-05 18:46 50.05139 19.77947 1655 ft 136 kts 164°
2026-05-05 18:46 50.05136 19.79189 1505 ft 154 kts 30°
2026-05-05 18:47 50.06161 19.79514 1396 ft 150 kts
2026-05-05 18:47 50.06603 19.80612 1235 ft 112 kts 77°
2026-05-05 18:47 50.06789 19.81662 1246 ft 93 kts 72°
2026-05-05 18:47 50.07141 19.82487 1184 ft 98 kts 36°
2026-05-05 18:48 50.07791 19.82560 1102 ft 102 kts 347°
2026-05-05 18:48 50.08229 19.81892 1081 ft 92 kts 261°
2026-05-05 18:48 50.08111 19.80918 978 ft 87 kts 256°
2026-05-05 18:48 50.07990 19.80046 847 ft 79 kts 257°
2026-05-05 18:49 50.07882 19.79252 784 ft 69 kts 256°
2026-05-05 18:49 50.07771 19.78457 786 ft 83 kts 256°
2026-05-05 18:49 50.07661 19.77606 921 ft 77 kts 256°
2026-05-05 18:49 50.07529 19.76803 1033 ft 76 kts 258°
2026-05-05 18:50 50.07491 19.76007 1146 ft 77 kts 298°
2026-05-05 18:50 50.07971 19.75744 1269 ft 77 kts 349°
2026-05-05 18:50 50.08547 19.75594 1391 ft 92 kts 357°
2026-05-05 18:50 50.09037 19.76171 1529 ft 98 kts 79°
2026-05-05 18:51 50.09157 19.77251 1662 ft 108 kts 85°
2026-05-05 18:51 50.09254 19.78444 1783 ft 116 kts 87°
2026-05-05 18:51 50.09386 19.79773 1789 ft 129 kts 86°
2026-05-05 18:51 50.09517 19.81159 1785 ft 131 kts 88°
2026-05-05 18:52 50.09485 19.82568 1722 ft 125 kts 132°
2026-05-05 18:52 50.08729 19.82712 1315 ft 117 kts 201°
2026-05-05 18:52 50.08267 19.81919 1131 ft 95 kts 252°
2026-05-05 18:52 50.08129 19.81016 986 ft 76 kts 257°
2026-05-05 18:53 50.07998 19.80094 858 ft 95 kts 256°
2026-05-05 18:53 50.07861 19.79088 785 ft 92 kts 257°
2026-05-05 18:53 50.07734 19.78160 834 ft 84 kts 257°
2026-05-05 18:53 50.07609 19.77233 1006 ft 86 kts 258°
2026-05-05 18:54 50.07504 19.76281 1139 ft 95 kts 258°
2026-05-05 18:54 50.07406 19.75212 1262 ft 104 kts 269°
2026-05-05 18:54 50.07833 19.74326 1391 ft 114 kts 339°
2026-05-05 18:54 50.08636 19.74152 1526 ft 120 kts 355°
2026-05-05 18:55 50.09374 19.74684 1639 ft 122 kts 58°
2026-05-05 18:55 50.09480 19.75922 1765 ft 116 kts 100°
2026-05-05 18:55 50.09419 19.77230 1793 ft 126 kts 99°
2026-05-05 18:55 50.09349 19.78609 1801 ft 132 kts 99°
2026-05-05 18:56 50.09270 19.80060 1798 ft 135 kts 98°
2026-05-05 18:56 50.09685 19.81264 1802 ft 145 kts
2026-05-05 18:56 50.10319 19.80322 1804 ft 136 kts 296°
2026-05-05 18:56 50.11044 19.79232 1527 ft 155 kts 324°
2026-05-05 18:57 50.11460 19.77953 1655 ft 133 kts 243°
2026-05-05 18:57 50.10717 19.77842 1642 ft 136 kts 131°
2026-05-05 18:57 50.10950 19.79071 1699 ft 140 kts 15°
2026-05-05 18:57 50.11562 19.78491 1815 ft 115 kts 252°
2026-05-05 18:58 50.10919 19.77592 1597 ft 134 kts 200°
2026-05-05 18:58 50.10358 19.78341 1605 ft 142 kts 64°
2026-05-05 18:58 50.11136 19.78269 1749 ft 125 kts 292°
2026-05-05 18:58 50.10663 19.77847 1790 ft 118 kts 130°
2026-05-05 18:59 50.11177 19.78614 1680 ft 135 kts 332°
2026-05-05 18:59 50.11194 19.77561 1651 ft 120 kts 202°
2026-05-05 18:59 50.10679 19.78274 1636 ft 141 kts 66°
2026-05-05 18:59 50.11476 19.78319 1709 ft 130 kts 304°
2026-05-05 19:00 50.11226 19.77438 1778 ft 117 kts 181°
2026-05-05 19:00 50.10571 19.78235 1576 ft 143 kts 88°
2026-05-05 19:00 50.11237 19.78224 1693 ft 131 kts 289°
2026-05-05 19:00 50.10777 19.77631 1729 ft 124 kts 144°
2026-05-05 19:01 50.11021 19.78771 1662 ft 141 kts
2026-05-05 19:01 50.11583 19.77760 1507 ft 142 kts 282°
2026-05-05 19:01 50.11818 19.76362 1655 ft 131 kts 283°
2026-05-05 19:01 50.12079 19.75054 1772 ft 124 kts 282°
2026-05-05 19:02 50.12391 19.73775 1789 ft 129 kts 287°
2026-05-05 19:02 50.12699 19.72446 1795 ft 132 kts 286°
2026-05-05 19:02 50.12999 19.71077 1794 ft 136 kts 286°
2026-05-05 19:02 50.13332 19.69680 1795 ft 139 kts 290°
2026-05-05 19:03 50.13823 19.68374 1808 ft 140 kts 301°
2026-05-05 19:03 50.14374 19.67118 1811 ft 141 kts 301°
2026-05-05 19:03 50.14884 19.65797 1808 ft 142 kts 294°
2026-05-05 19:03 50.15359 19.64427 1810 ft 145 kts 296°
2026-05-05 19:04 50.15815 19.63044 1805 ft 142 kts 294°
2026-05-05 19:04 50.16207 19.61664 1806 ft 140 kts 290°
2026-05-05 19:04 50.16652 19.60518 1810 ft 148 kts 304°
2026-05-05 19:04 50.17370 19.59383 1812 ft 148 kts 307°
2026-05-05 19:05 50.18086 19.58217 1804 ft 148 kts 305°
2026-05-05 19:05 50.18805 19.57075 1806 ft 148 kts 310°
2026-05-05 19:05 50.19513 19.55948 1808 ft 142 kts 304°
2026-05-05 19:05 50.20143 19.54726 1795 ft 147 kts 304°
2026-05-05 19:06 50.20812 19.53558 1834 ft 141 kts 310°
2026-05-05 19:06 50.21539 19.52501 1806 ft 146 kts 314°
2026-05-05 19:06 50.22286 19.51423 1809 ft 147 kts 311°
2026-05-05 19:06 50.23021 19.50312 1802 ft 146 kts 309°
2026-05-05 19:07 50.23700 19.49144 1800 ft 144 kts 306°
2026-05-05 19:07 50.24380 19.47990 1810 ft 142 kts 311°
2026-05-05 19:07 50.25103 19.47000 1902 ft 138 kts 316°
2026-05-05 19:07 50.25829 19.46036 1983 ft 139 kts 313°
2026-05-05 19:08 50.26545 19.45001 1957 ft 145 kts 310°
2026-05-05 19:08 50.27259 19.43829 1840 ft 151 kts 304°
2026-05-05 19:08 50.27894 19.42530 1804 ft 148 kts 302°
2026-05-05 19:08 50.28505 19.41272 1807 ft 147 kts 302°
2026-05-05 19:09 50.29126 19.39981 1801 ft 145 kts 301°
2026-05-05 19:09 50.29733 19.38756 1803 ft 145 kts 304°
2026-05-05 19:09 50.30388 19.37561 1801 ft 143 kts 303°
2026-05-05 19:09 50.30985 19.36311 1804 ft 143 kts 295°
2026-05-05 19:10 50.31402 19.34903 1801 ft 141 kts 287°
2026-05-05 19:10 50.31800 19.33493 1802 ft 142 kts 288°
2026-05-05 19:10 50.32207 19.32088 1800 ft 142 kts 288°
2026-05-05 19:10 50.32610 19.30673 1800 ft 143 kts 288°
2026-05-05 19:11 50.32969 19.29235 1797 ft 141 kts 282°
2026-05-05 19:11 50.33269 19.27785 1800 ft 139 kts 282°
2026-05-05 19:11 50.33567 19.26337 1795 ft 139 kts 283°
2026-05-05 19:11 50.33863 19.24903 1811 ft 138 kts 281°
2026-05-05 19:12 50.34175 19.23490 1801 ft 139 kts 283°
2026-05-05 19:12 50.34515 19.22074 1802 ft 139 kts 285°
2026-05-05 19:12 50.34956 19.20705 1806 ft 141 kts 291°
2026-05-05 19:12 50.35403 19.19325 1804 ft 143 kts 290°
2026-05-05 19:13 50.35849 19.17920 1806 ft 144 kts 289°
2026-05-05 19:13 50.36296 19.16504 1799 ft 145 kts 290°
2026-05-05 19:13 50.36741 19.15089 1801 ft 144 kts 290°
2026-05-05 19:13 50.37188 19.13698 1799 ft 140 kts 289°
2026-05-05 19:14 50.37632 19.12374 1797 ft 134 kts 290°
2026-05-05 19:14 50.38069 19.11148 1793 ft 129 kts 296°
2026-05-05 19:14 50.38607 19.10046 1793 ft 125 kts 301°
2026-05-05 19:14 50.39124 19.08970 1791 ft 122 kts 300°
2026-05-05 19:15 50.39635 19.07901 1790 ft 123 kts 300°
2026-05-05 19:15 50.40150 19.06854 1792 ft 124 kts 313°
2026-05-05 19:15 50.40975 19.06548 1789 ft 130 kts 12°
2026-05-05 19:15 50.41835 19.06957 1789 ft 128 kts 18°
2026-05-05 19:16 50.42684 19.07374 1792 ft 128 kts 18°
2026-05-05 19:16 50.43537 19.07782 1788 ft 128 kts 17°
2026-05-05 19:16 50.44400 19.07986 1833 ft 124 kts
2026-05-05 19:16 50.45023 19.07484 1920 ft 95 kts 271°
2026-05-05 19:17 50.44742 19.06896 1907 ft 85 kts 169°
2026-05-05 19:17 50.44471 19.07904 1738 ft 126 kts 82°
2026-05-05 19:17 50.45135 19.08063 1825 ft 106 kts 281°
2026-05-05 19:17 50.44804 19.07263 1736 ft 101 kts 179°
2026-05-05 19:18 50.44848 19.08231 1626 ft 129 kts 25°
2026-05-05 19:18 50.45252 19.07536 1626 ft 101 kts 229°
2026-05-05 19:18 50.44775 19.07860 1589 ft 115 kts 86°
2026-05-05 19:18 50.45369 19.08067 1603 ft 111 kts 285°
2026-05-05 19:19 50.44981 19.07599 1551 ft 104 kts 135°
2026-05-05 19:19 50.45450 19.08003 1511 ft 112 kts 295°
2026-05-05 19:19 50.45147 19.07768 1390 ft 113 kts 80°
2026-05-05 19:19 50.45616 19.07672 1497 ft 93 kts 240°
2026-05-05 19:20 50.45405 19.08026 1382 ft 121 kts 24°
2026-05-05 19:20 50.46082 19.08528 1424 ft 117 kts 83°
2026-05-05 19:20 50.46028 19.09779 1438 ft 114 kts 99°
2026-05-05 19:20 50.45987 19.11012 1477 ft 114 kts 96°
2026-05-05 19:21 50.45918 19.12284 1477 ft 116 kts 100°
2026-05-05 19:21 50.45923 19.13534 1532 ft 119 kts 71°
2026-05-05 19:21 50.46679 19.13688 1561 ft 122 kts 336°
2026-05-05 19:21 50.47429 19.13041 1490 ft 124 kts 306°
2026-05-05 19:22 50.47601 19.11742 1276 ft 131 kts 266°
2026-05-05 19:22 50.47606 19.10479 1087 ft 94 kts 264°
2026-05-05 19:22 50.47599 19.09511 998 ft 84 kts 263°
2026-05-05 19:22 50.47604 19.08619 1061 ft 80 kts 263°
2026-05-05 19:23 50.47601 19.07737 1184 ft 86 kts 263°
2026-05-05 19:23 50.47598 19.06746 1319 ft 96 kts 264°
2026-05-05 19:23 50.47663 19.05659 1459 ft 105 kts 272°
2026-05-05 19:23 50.47428 19.04654 1594 ft 103 kts 210°
2026-05-05 19:24 50.46728 19.04423 1726 ft 104 kts 188°
2026-05-05 19:24 50.45988 19.04466 1789 ft 116 kts 160°
2026-05-05 19:24 50.45508 19.05546 1790 ft 138 kts 106°
2026-05-05 19:24 50.45542 19.07119 1793 ft 147 kts 90°
2026-05-05 19:25 50.45609 19.08733 1794 ft 148 kts 92°
2026-05-05 19:25 50.45666 19.10339 1794 ft 143 kts 93°
2026-05-05 19:25 50.45758 19.11864 1766 ft 143 kts 77°
2026-05-05 19:25 50.46642 19.12374 1627 ft 151 kts 352°
2026-05-05 19:26 50.47503 19.11864 1394 ft 112 kts 302°
2026-05-05 19:26 50.47599 19.10801 1120 ft 92 kts 265°
2026-05-05 19:26 50.47598 19.09834 1014 ft 85 kts 265°
2026-05-05 19:26 50.47591 19.08967 995 ft 77 kts 272°
2026-05-05 19:27 50.47610 19.08011 1071 ft 95 kts 267°
2026-05-05 19:27 50.47604 19.06938 1168 ft 107 kts 264°
2026-05-05 19:27 50.47611 19.05741 1289 ft 112 kts 268°
2026-05-05 19:27 50.47606 19.04493 1426 ft 117 kts 249°
2026-05-05 19:28 50.47029 19.03727 1557 ft 113 kts 189°
2026-05-05 19:28 50.46245 19.03721 1686 ft 114 kts 174°
2026-05-05 19:28 50.45640 19.04512 1787 ft 128 kts 118°
2026-05-05 19:28 50.45618 19.05999 1793 ft 143 kts 91°
2026-05-05 19:29 50.45710 19.07571 1797 ft 147 kts 91°
2026-05-05 19:29 50.45799 19.09179 1793 ft 148 kts 90°
2026-05-05 19:29 50.45901 19.10773 1795 ft 143 kts 90°
2026-05-05 19:29 50.46031 19.12227 1764 ft 130 kts 73°
2026-05-05 19:30 50.46762 19.12872 1663 ft 127 kts 352°
2026-05-05 19:30 50.47538 19.12292 1466 ft 122 kts 297°
2026-05-05 19:30 50.47598 19.10990 1170 ft 121 kts 265°
2026-05-05 19:30 50.47599 19.09748 1017 ft 109 kts 265°
2026-05-05 19:31 50.47600 19.08622 994 ft 95 kts 268°
2026-05-05 19:31 50.47611 19.07564 1131 ft 95 kts 267°
2026-05-05 19:31 50.47609 19.06544 1312 ft 94 kts 263°
2026-05-05 19:31 50.47620 19.05467 1443 ft 102 kts 264°
2026-05-05 19:32 50.47333 19.04508 1578 ft 103 kts 207°
2026-05-05 19:32 50.46625 19.04467 1710 ft 104 kts 175°
2026-05-05 19:32 50.45910 19.04677 1791 ft 113 kts 160°
2026-05-05 19:32 50.45435 19.05766 1790 ft 138 kts 105°
2026-05-05 19:33 50.45575 19.07330 1789 ft 149 kts 83°
2026-05-05 19:33 50.45779 19.08934 1789 ft 150 kts 84°
2026-05-05 19:33 50.46015 19.10541 1671 ft 154 kts 80°
2026-05-05 19:33 50.46396 19.12085 1547 ft 149 kts 49°
2026-05-05 19:34 50.47314 19.12016 1411 ft 139 kts 318°
2026-05-05 19:34 50.47592 19.10671 1131 ft 135 kts 266°
2026-05-05 19:34 50.47599 19.09273 1005 ft 115 kts 265°
2026-05-05 19:35 50.47609 19.06887 1189 ft 112 kts 268°
2026-05-05 19:35 50.47645 19.05650 1318 ft 114 kts 266°
2026-05-05 19:35 50.47473 19.04504 1453 ft 111 kts 223°
2026-05-05 19:35 50.46756 19.04195 1589 ft 111 kts 179°
2026-05-05 19:36 50.46071 19.04717 1713 ft 118 kts 129°
2026-05-05 19:36 50.45998 19.06057 1792 ft 136 kts 84°
2026-05-05 19:36 50.46200 19.07556 1781 ft 144 kts 84°
2026-05-05 19:36 50.46347 19.09206 1348 ft 152 kts 86°
2026-05-05 19:37 50.46588 19.10684 1260 ft 129 kts 60°
2026-05-05 19:37 50.47307 19.10945 1163 ft 113 kts 323°
2026-05-05 19:37 50.47590 19.09966 1005 ft 102 kts 265°
2026-05-05 19:37 50.47599 19.08880 1019 ft 102 kts 266°
2026-05-05 19:38 50.47628 19.07746 1166 ft 107 kts 267°
2026-05-05 19:38 50.47621 19.06548 1296 ft 111 kts 264°
2026-05-05 19:38 50.47620 19.05320 1429 ft 112 kts 255°
2026-05-05 19:38 50.47142 19.04505 1562 ft 106 kts 191°
2026-05-05 19:39 50.46429 19.04755 1696 ft 108 kts 161°
2026-05-05 19:39 50.45914 19.05657 1794 ft 122 kts 123°
2026-05-05 19:39 50.45551 19.06939 1795 ft 133 kts 119°
2026-05-05 19:39 50.45056 19.08138 1792 ft 130 kts 150°
2026-05-05 19:40 50.44200 19.08303 1792 ft 127 kts 195°
2026-05-05 19:40 50.43381 19.07780 1796 ft 128 kts 209°
2026-05-05 19:40 50.42632 19.07012 1793 ft 128 kts 213°
2026-05-05 19:40 50.41898 19.06253 1787 ft 126 kts 211°
2026-05-05 19:41 50.41425 19.05735 1790 ft 125 kts 212°
2026-05-05 19:41 50.40643 19.05147 1787 ft 127 kts 186°
2026-05-05 19:41 50.39558 19.05883 1788 ft 132 kts 150°
2026-05-05 19:41 50.39037 19.06410 1794 ft 132 kts 152°
2026-05-05 19:42 50.38321 19.07347 1791 ft 136 kts 139°
2026-05-05 19:42 50.37697 19.08443 1790 ft 136 kts 136°
2026-05-05 19:42 50.37070 19.09547 1788 ft 134 kts 137°
2026-05-05 19:42 50.36450 19.10635 1793 ft 132 kts 138°
2026-05-05 19:43 50.35855 19.11700 1792 ft 131 kts 138°
2026-05-05 19:43 50.35277 19.12826 1790 ft 131 kts 133°
2026-05-05 19:43 50.34757 19.13983 1793 ft 132 kts 133°
2026-05-05 19:43 50.34208 19.15137 1790 ft 132 kts 134°
2026-05-05 19:44 50.33652 19.16287 1792 ft 133 kts 133°
2026-05-05 19:44 50.33096 19.17449 1794 ft 133 kts 132°
2026-05-05 19:44 50.32546 19.18608 1792 ft 133 kts 133°
2026-05-05 19:44 50.31996 19.19776 1791 ft 133 kts 133°
2026-05-05 19:45 50.31524 19.21036 1790 ft 136 kts 121°
2026-05-05 19:45 50.31157 19.22407 1791 ft 136 kts 120°
2026-05-05 19:45 50.30785 19.23772 1782 ft 136 kts 119°
2026-05-05 19:45 50.30384 19.25116 1782 ft 137 kts 122°
2026-05-05 19:46 50.29983 19.26451 1781 ft 137 kts 120°
2026-05-05 19:46 50.29592 19.27813 1780 ft 137 kts 120°
2026-05-05 19:46 50.29199 19.29175 1780 ft 137 kts 120°
2026-05-05 19:46 50.28807 19.30530 1777 ft 137 kts 119°
2026-05-05 19:47 50.28410 19.31874 1780 ft 135 kts 120°
2026-05-05 19:47 50.28007 19.33197 1779 ft 134 kts 121°
2026-05-05 19:47 50.27603 19.34501 1779 ft 133 kts 121°
2026-05-05 19:47 50.27228 19.35821 1780 ft 133 kts 120°
2026-05-05 19:48 50.26833 19.37140 1784 ft 135 kts 121°
2026-05-05 19:48 50.26441 19.38481 1783 ft 136 kts 119°
2026-05-05 19:48 50.26047 19.39840 1782 ft 137 kts 120°
2026-05-05 19:48 50.25643 19.41190 1785 ft 136 kts 122°
2026-05-05 19:49 50.25059 19.42313 1778 ft 132 kts 137°
2026-05-05 19:49 50.24441 19.43364 1777 ft 130 kts 137°
2026-05-05 19:49 50.23801 19.44330 1778 ft 129 kts 141°
2026-05-05 19:49 50.23181 19.45354 1781 ft 130 kts 137°
2026-05-05 19:50 50.22574 19.46415 1785 ft 131 kts 138°
2026-05-05 19:50 50.21939 19.47430 1778 ft 131 kts 138°
2026-05-05 19:50 50.21347 19.48536 1777 ft 134 kts 133°
2026-05-05 19:50 50.20764 19.49676 1788 ft 135 kts 135°
2026-05-05 19:51 50.20148 19.50790 1783 ft 135 kts 136°
2026-05-05 19:51 50.19529 19.51908 1781 ft 136 kts 136°
2026-05-05 19:51 50.18924 19.53034 1780 ft 135 kts 137°
2026-05-05 19:51 50.18355 19.54167 1798 ft 135 kts 132°
2026-05-05 19:52 50.17750 19.55271 1788 ft 133 kts 138°
2026-05-05 19:52 50.17147 19.56358 1789 ft 135 kts 135°
2026-05-05 19:52 50.16519 19.57454 1749 ft 138 kts 137°
2026-05-05 19:52 50.15894 19.58553 1787 ft 134 kts 138°
2026-05-05 19:53 50.15257 19.59630 1774 ft 139 kts 133°
2026-05-05 19:53 50.15140 19.61132 1688 ft 151 kts 65°
2026-05-05 19:53 50.15988 19.61786 1807 ft 144 kts 336°
2026-05-05 19:53 50.16120 19.60515 1671 ft 142 kts 220°
2026-05-05 19:54 50.15253 19.60580 1489 ft 148 kts 128°
2026-05-05 19:54 50.15183 19.62075 1555 ft 140 kts 60°
2026-05-05 19:54 50.16007 19.62511 1643 ft 136 kts 331°
2026-05-05 19:54 50.16141 19.61355 1692 ft 122 kts 224°
2026-05-05 19:55 50.15353 19.60971 1778 ft 123 kts 174°
2026-05-05 19:55 50.14990 19.62009 1887 ft 129 kts 78°
2026-05-05 19:55 50.15634 19.63069 1770 ft 146 kts 18°
2026-05-05 19:55 50.16543 19.62657 1798 ft 142 kts 308°
2026-05-05 19:56 50.16619 19.61284 1841 ft 131 kts 230°
2026-05-05 19:56 50.15819 19.61217 1809 ft 135 kts 139°
2026-05-05 19:56 50.15738 19.62628 1812 ft 144 kts 62°
2026-05-05 19:56 50.16589 19.63234 1873 ft 143 kts 345°
2026-05-05 19:57 50.17094 19.62159 1844 ft 136 kts 245°
2026-05-05 19:57 50.16314 19.62084 1763 ft 139 kts 134°
2026-05-05 19:57 50.16432 19.63377 1763 ft 148 kts 27°
2026-05-05 19:57 50.17148 19.62810 1763 ft 136 kts 264°
2026-05-05 19:58 50.16394 19.62699 1623 ft 138 kts 138°
2026-05-05 19:58 50.15964 19.63874 1793 ft 131 kts 93°
2026-05-05 19:58 50.16604 19.64583 1801 ft 139 kts 327°
2026-05-05 19:58 50.16466 19.63574 1637 ft 140 kts 168°
2026-05-05 19:59 50.16499 19.64685 1764 ft 138 kts 14°
2026-05-05 19:59 50.16896 19.63725 1728 ft 136 kts 232°
2026-05-05 19:59 50.16288 19.64266 1732 ft 140 kts 89°
2026-05-05 19:59 50.17020 19.64856 1737 ft 146 kts 328°
2026-05-05 20:00 50.16925 19.63622 1719 ft 137 kts 210°
2026-05-05 20:00 50.16189 19.64084 1801 ft 138 kts 102°
2026-05-05 20:00 50.16752 19.65172 1852 ft 147 kts
2026-05-05 20:00 50.17422 19.64292 1855 ft 136 kts 258°
2026-05-05 20:01 50.16709 19.63761 1689 ft 143 kts 149°
2026-05-05 20:01 50.16835 19.64972 1684 ft 150 kts
2026-05-05 20:01 50.17215 19.63882 1616 ft 140 kts 224°
2026-05-05 20:01 50.16318 19.64065 1606 ft 137 kts 154°
2026-05-05 20:02 50.15468 19.64780 1552 ft 140 kts 148°
2026-05-05 20:02 50.14768 19.65764 1595 ft 137 kts 129°
2026-05-05 20:02 50.14222 19.66957 1676 ft 132 kts 124°
2026-05-05 20:02 50.13760 19.68172 1749 ft 131 kts 123°
2026-05-05 20:03 50.13316 19.69380 1894 ft 124 kts 122°
2026-05-05 20:03 50.12918 19.70602 1885 ft 130 kts 118°
2026-05-05 20:03 50.12568 19.71949 1801 ft 139 kts 114°
2026-05-05 20:03 50.12216 19.73367 1748 ft 142 kts 115°
2026-05-05 20:04 50.11773 19.74699 1786 ft 136 kts 125°
2026-05-05 20:04 50.11258 19.75935 1733 ft 142 kts 125°
2026-05-05 20:04 50.10681 19.77247 1567 ft 150 kts 126°
2026-05-05 20:04 50.10078 19.78565 1435 ft 152 kts 123°
2026-05-05 20:05 50.09730 19.80111 1281 ft 144 kts 103°
2026-05-05 20:05 50.09451 19.81351 1156 ft 105 kts 141°
2026-05-05 20:05 50.08849 19.81623 1062 ft 81 kts 174°
2026-05-05 20:05 50.08345 19.81571 924 ft 73 kts 213°
2026-05-05 20:06 50.08098 19.80831 910 ft 85 kts 256°
2026-05-05 20:06 50.07969 19.79880 826 ft 93 kts 257°
2026-05-05 20:06 50.07837 19.78919 788 ft 82 kts 258°
2026-05-05 20:06 50.07740 19.78229 784 ft 57 kts 258°
2026-05-05 20:07 50.07600 19.78108 784 ft 17 kts 182°
2026-05-05 20:07 50.07483 19.78110 784 ft 16 kts 145°
2026-05-05 20:07 50.07493 19.78292 785 ft 22 kts 78°
2026-05-05 20:07 50.07537 19.78582 785 ft 33 kts 80°
2026-05-05 20:08 50.07579 19.78913 785 ft 29 kts 78°
2026-05-05 20:08 50.07625 19.79215 785 ft 28 kts 85°
2026-05-05 20:08 50.07659 19.79486 784 ft 24 kts 78°
2026-05-05 20:08 50.07692 19.79722 784 ft 21 kts 78°
2026-05-05 20:09 50.07685 19.79877 784 ft 13 kts 162°
2026-05-05 20:09 50.07610 19.79922 785 ft 12 kts 108°
2026-05-05 20:09 50.07624 19.80053 785 ft 13 kts 79°
2026-05-05 20:09 50.07641 19.80186 785 ft 13 kts 74°
2026-05-05 20:10 50.07669 19.80271 785 ft 4 kts 348°
2026-05-05 20:10 50.07697 19.80261 785 ft 5 kts 348°
2026-05-05 20:10 50.07714 19.80256 785 ft 0 kts 348°
2026-05-05 20:10 50.07717 19.80255 785 ft 0 kts 348°